Regional Weather Roundup
Issued by NWS

Home | Current Version | Previous Version | Text Only | Print | Product List | Glossary On
Versions: 1 2 3 4 5 6 7 8 9 10 11 12 13 14 15 16 17 18 19 20 21 22 23 24 25 26 27 28 29 30 31 32 33 34 35 36 37 38 39 40 41 42 43 44 45 46 47 48 49 50
000
ASUS43 KLMK 230802
RWRKY
KENTUCKY REGIONAL WEATHER ROUNDUP
NATIONAL WEATHER SERVICE LOUISVILLE KY
400 AM EDT WED APR 23 2014

NOTE "FAIR" INDICATES FEW OR NO CLOUDS BELOW 12,000 FEET
WITH NO SIGNIFICANT WEATHER AND/OR OBSTRUCTIONS TO VISIBILITY.

KYZ001>023-026-027-061>063-070>075-230900-
WESTERN AND SOUTH CENTRAL KENTUCKY

CITY           SKY/WX    TMP DP  RH WIND       PRES   REMARKS
PADUCAH        CLEAR     47  40  76 CALM      29.99R
HENDERSON      CLEAR     50  36  57 NE6       30.00R
OWENSBORO      CLEAR     50  38  63 NE8       30.01R
HOPKINSVILLE   CLEAR     49  40  71 N3        29.98R
BOWLING GREEN  CLEAR     47  35  63 NE7       29.99R
GLASGOW        NOT AVBL
$$

KYZ024-025-028>034-038-045-046-053-230900-
NORTH CENTRAL KENTUCKY

CITY           SKY/WX    TMP DP  RH WIND       PRES   REMARKS
LOUISVILLE/SDF CLEAR     48  32  53 N7        30.01R
LOUISVILLE/LOU CLEAR     49  33  54 N3        30.02R
FORT KNOX      CLEAR     46  32  57 N5        30.00R
$$

KYZ035>037-039>044-047>052-055>060-089>105-230900-
NORTHEAST KENTUCKY

CITY           SKY/WX    TMP DP  RH WIND       PRES   REMARKS
LEXINGTON      CLEAR     44  31  60 N3        29.99R
COVINGTON      CLEAR     42  31  64 NW7       29.99S
FRANKFORT      CLEAR     45  31  58 N5        29.99R
$$

KYZ054-064>069-076>088-106>120-230900-
SOUTHEAST KENTUCKY

CITY           SKY/WX    TMP DP  RH WIND       PRES   REMARKS
JACKSON        CLEAR     46  27  47 VRB3      29.95R
LONDON         CLEAR     47  30  51 N3        29.95S
SOMERSET       NOT AVBL
MIDDLESBORO    NOT AVBL
MONTICELLO     SUNNY     49  32  52 N8        29.99R
$$




USA.gov is the U.S. government's official web portal to all federal, state and local government web resources and services.